This is the latest recevied weather packets stored in our database for station/object KD9NSC. If no packets are shown the sender has not sent any weather packets the latest 10 day(s).
| Time | Temp. | Humidity | Pressure | Rain* | Wind** | Luminosity | Snow |
|---|---|---|---|---|---|---|---|
| 1777660001 | 8.89° C | 71% | 1019.2 hPa | 0 mm | - | 105 W/m² | - |
| 1777659698 | 8.89° C | 69% | 1019.2 hPa | 0 mm | - | 91 W/m² | - |
| 1777659395 | 8.89° C | 70% | 1019.1 hPa | 0 mm | - | 100 W/m² | - |
| 1777659092 | 9.44° C | 67% | 1019.2 hPa | 0 mm | - | 174 W/m² | - |
| 1777658790 | 9.44° C | 69% | 1019.1 hPa | 0 mm | - | 124 W/m² | - |
| 1777658486 | 8.89° C | 69% | 1019.2 hPa | 0 mm | - | 155 W/m² | - |
| 1777658183 | 8.89° C | 73% | 1019 hPa | 0 mm | - | 97 W/m² | - |
| 1777657880 | 8.89° C | 72% | 1018.9 hPa | 0 mm | - | 46 W/m² | - |
| 1777657576 | 8.33° C | 72% | 1019.2 hPa | 0 mm | - | 36 W/m² | - |
| 1777657274 | 8.33° C | 74% | 1019.1 hPa | 0 mm | - | 174 W/m² | - |
| 1777656971 | 8.33° C | 75% | 1019.2 hPa | 0 mm | - | 94 W/m² | - |
| 1777656668 | 8.33° C | 75% | 1019.1 hPa | 0 mm | - | 111 W/m² | - |
| 1777656363 | 7.78° C | 76% | 1019.1 hPa | 0 mm | - | 88 W/m² | - |
| 1777656059 | 8.33° C | 74% | 1019.1 hPa | 0 mm | - | 72 W/m² | - |
| 1777655755 | 8.89° C | 72% | 1018.9 hPa | 0 mm | - | 72 W/m² | - |
| 1777655452 | 8.89° C | 72% | 1018.7 hPa | 0 mm | - | 91 W/m² | - |
| 1777655149 | 8.89° C | 69% | 1019 hPa | 0 mm | - | 91 W/m² | - |
| 1777654846 | 9.44° C | 68% | 1018.9 hPa | 0 mm | - | 99 W/m² | - |
| 1777654544 | 10° C | 68% | 1018.9 hPa | 0 mm | - | 125 W/m² | - |
| 1777654241 | 10° C | 66% | 1018.8 hPa | 0 mm | - | 124 W/m² | - |
| 1777653939 | 10.56° C | 65% | 1018.7 hPa | 0 mm | - | 156 W/m² | - |
| 1777653635 | 11.67° C | 65% | 1018.9 hPa | 0 mm | - | 284 W/m² | - |
| 1777653332 | 11.11° C | 68% | 1018.9 hPa | 0 mm | - | 337 W/m² | - |
| 1777653029 | 10.56° C | 69% | 1019 hPa | 0 mm | - | 475 W/m² | - |
| 1777652725 | 10° C | 70% | 1019.1 hPa | 0 mm | - | 502 W/m² | - |
* Rain latest hour (hover to see other rain measurements)
** Current wind speed in m/s (hover to see current wind gust speed)